This is the latest recevied weather packets stored in our database for station/object KM4KMO-14. If no packets are shown the sender has not sent any weather packets the latest 10 day(s).
| Time | Temp. | Humidity | Pressure | Rain* | Wind** | Luminosity | Snow |
|---|---|---|---|---|---|---|---|
| 1777650150 | 18.89° C | 59% | 1012.5 hPa | 0 mm | - | - | - |
| 1777649250 | 17.78° C | 62% | 1012.3 hPa | 0 mm | - | - | - |
| 1777648350 | 17.22° C | 61% | 1012.4 hPa | 0 mm | - | - | - |
| 1777647450 | 16.67° C | 63% | 1012.5 hPa | 0 mm | - | - | - |
| 1777646550 | 16.11° C | 67% | 1012.6 hPa | 0 mm | - | - | - |
| 1777645651 | 15.56° C | 65% | 1012.7 hPa | 0 mm | - | - | - |
| 1777644750 | 15° C | 67% | 1012.4 hPa | 0 mm | - | - | - |
| 1777643850 | 14.44° C | 71% | 1012.1 hPa | 0 mm | - | - | - |
| 1777642951 | 13.89° C | 68% | 1012.1 hPa | 0 mm | - | - | - |
| 1777642051 | 13.33° C | 71% | 1012 hPa | 0 mm | - | - | - |
| 1777641151 | 13.33° C | 73% | 1012 hPa | 0 mm | - | - | - |
| 1777640251 | 12.78° C | 71% | 1012.1 hPa | 0 mm | - | - | - |
| 1777639351 | 12.22° C | 72% | 1012 hPa | 0 mm | - | - | - |
| 1777638451 | 11.67° C | 72% | 1012.1 hPa | 0 mm | - | - | - |
| 1777637551 | 11.67° C | 74% | 1011.9 hPa | 0 mm | - | - | - |
| 1777636651 | 11.67° C | 73% | 1011.6 hPa | 0 mm | - | - | - |
| 1777635751 | 11.67° C | 73% | 1011.3 hPa | 0 mm | - | - | - |
| 1777634851 | 11.11° C | 74% | 1011.2 hPa | 0 mm | - | - | - |
| 1777633951 | 11.11° C | 73% | 1011.2 hPa | 0 mm | - | - | - |
| 1777633051 | 11.11° C | 74% | 1011.2 hPa | 0 mm | - | - | - |
| 1777632151 | 11.11° C | 74% | 1010.9 hPa | 0 mm | - | - | - |
| 1777631251 | 11.11° C | 73% | 1010.9 hPa | 0 mm | - | - | - |
| 1777630351 | 11.11° C | 73% | 1011 hPa | 0 mm | - | - | - |
| 1777629451 | 11.67° C | 74% | 1011 hPa | 0 mm | - | - | - |
| 1777628551 | 11.67° C | 73% | 1011 hPa | 0 mm | - | - | - |
* Rain latest hour (hover to see other rain measurements)
** Current wind speed in m/s (hover to see current wind gust speed)